Location: Peterborough
(44.3091°N, 78.3197°W)
Time: 00:33:41
(UTC-04:00)

Vanguard 2 Rocket - Pass Details

Date: 22 March 2023
Orbit: 554 x 3314 km, 32.9° (Epoch: 02 June)

Event Time Altitude Azimuth Distance (km) Brightness Sun altitude
Rises 00:28:02 0° 262° (W) 4,913 10.7 -43.7°
Reaches altitude 10° 00:30:52 10° 257° (WSW) 4,235 10.3 -43.8°
Enters shadow 00:33:34 21° 250° (WSW) 3,691 9.8 -44.0°
Maximum altitude 00:42:43 51° 186° (S) 3,094 - -44.4°
Drops below altitude 10° 01:00:42 10° 119° (ESE) 6,212 - -45.0°
Exits shadow 01:04:42 - 116° (ESE) 7,039 11.2 -45.0°
Sets 01:05:57 0° 115° (ESE) 7,296 11.3 -45.0°
